Regional Weather Roundup
Issued by NWS

Home | Current Version | Previous Version | Graphics & Text | Print | Product List | Glossary On
Versions: 1 2 3 4 5 6 7 8 9 10 11 12 13 14 15 16 17 18 19 20 21 22 23 24 25 26 27 28 29 30 31 32 33 34 35 36 37 38 39 40 41 42 43 44 45 46 47 48 49 50
000
ASUS43 KOAX 280202
RWRNE

WEATHER ROUNDUP FOR NEBRASKA
NATIONAL WEATHER SERVICE OMAHA NE
900 PM CDT THU APR 27 2017

NOTES: SATELLITE DATA IS BEING USED TO AUGMENT CLOUD COVER ABOVE
       12000 FEET.
       "FAIR" INDICATES FEW OR NO CLOUDS BELOW 12,000 FEET WITH NO
       SIGNIFICANT WEATHER AND/OR OBSTRUCTIONS TO VISIBILITY.

  * THESE STATIONS DO NOT REPORT WEATHER SUCH AS RAIN...SNOW OR FOG.

NEZ001>004-019>022-054>056-280300-
NEBRASKA PANHANDLE

CITY           SKY/WX    TMP DP  RH WIND       PRES   REMARKS
SCOTTSBLUFF    CLOUDY    43  39  86 E9        29.57R
ALLIANCE       CLOUDY    42  40  92 E10       29.59S
CHADRON        LGT RAIN  42  40  92 NE12      29.63R
KIMBALL        CLOUDY    40  38  93 E9        29.58R WCI  33
SIDNEY         RAIN      39  36  89 NE10      29.61S FOG     WCI  32
$$

NEZ057>060-069>072-079>082-280300-
SOUTHWEST NEBRASKA

CITY           SKY/WX    TMP DP  RH WIND       PRES   REMARKS
NORTH PLATTE   CLOUDY    47  41  80 E10       29.63R
IMPERIAL       LGT RAIN  46  41  82 E12       29.58R
LEXINGTON      CLOUDY    47  40  77 SE13      29.66R
MCCOOK         CLOUDY    47  40  76 E22G28    29.60R
OGALLALA       CLOUDY    47  40  78 E12G21    29.61R
$$

NEZ005>010-023>029-035>040-094-280300-
NORTH CENTRAL NEBRASKA

CITY           SKY/WX    TMP DP  RH WIND       PRES   REMARKS
VALENTINE      LGT RAIN  50  35  56 E10       29.68R
AINSWORTH      LGT RAIN  46  39  76 E8        29.69R
BROKEN BOW     CLOUDY    48  37  65 E9        29.65R
O`NEILL        PTCLDY    47  34  62 E9        29.72R
ORD            CLOUDY    46  39  76 E7        29.67S
THEDFORD       CLOUDY    47  38  70 E10       29.66S
$$

NEZ041-046>049-061>064-073>077-083>087-280300-
SOUTH CENTRAL NEBRASKA

CITY           SKY/WX    TMP DP  RH WIND       PRES   REMARKS
GRAND ISLAND   CLOUDY    48  43  82 S9        29.71R
AURORA         MOCLDY    49  44  81 S12G17    29.71R
HASTINGS       CLOUDY    46  43  89 SE10      29.70S
HEBRON         LGT RAIN  47  45  92 SE5       29.72R
HOLDREGE       CLOUDY    45  42  90 SE13      29.66R
KEARNEY *      CLOUDY    46  39  76 SE15      29.68R
YORK           CLOUDY    50  39  66 S10       29.72R
$$

NEZ011>018-030>034-042>045-280300-
NORTHEAST NEBRASKA

CITY           SKY/WX    TMP DP  RH WIND       PRES   REMARKS
NORFOLK        PTCLDY    48  34  58 E5        29.72R
ALBION         CLOUDY    51  38  60 SE3       29.71S
BLAIR          CLOUDY    51  36  55 NE6       29.74R
FREMONT        PTCLDY    53  34  49 NE3       29.74R
TEKAMAH        PTCLDY    51  34  52 NE3       29.74R
WAYNE          CLEAR     42  35  75 NE5       29.74R
$$

NEZ050>053-065>068-078-088>093-280300-
SOUTHEAST NEBRASKA

CITY           SKY/WX    TMP DP  RH WIND       PRES   REMARKS
LINCOLN        CLOUDY    53  38  56 S3        29.74R
OMAHA EPPLEY   CLOUDY    53  35  50 E6        29.74R
BEATRICE       DRIZZLE   50  45  83 S8        29.73S
FALLS CITY     LGT RAIN  51  47  86 S9        29.76R
NEBRASKA CITY  CLOUDY    54  28  37 E3        29.75R
PLATTSMOUTH    CLOUDY    55  28  35 CALM      29.74R
$$

NEZ044-045-051>053-067-280300-
OMAHA AREA

CITY           SKY/WX    TMP DP  RH WIND       PRES   REMARKS
OMAHA EPPLEY   CLOUDY    53  35  50 E6        29.74R
BLAIR          CLOUDY    51  36  55 NE6       29.74R
FREMONT        PTCLDY    53  34  49 NE3       29.74R
MILLARD        CLOUDY    56  38  50 CALM      29.74R
OFFUTT AFB     CLOUDY    54  36  50 SE3       29.74R
PLATTSMOUTH    CLOUDY    55  28  35 CALM      29.74R
WAHOO          MOCLDY    53  35  50 S5        29.74R
$$




USA.gov is the U.S. government's official web portal to all federal, state and local government web resources and services.